�搅�E���B���j�^�v������
Date,Time,�搅(cps),���B(cps),���J
2024/05/16,00:00,6.7,4.7,�L
2024/05/16,00:10,6.9,4.6,�L
2024/05/16,00:20,6.7,4.6,�L
2024/05/16,00:30,6.9,4.4,�L
2024/05/16,00:40,6.8,4.5,�L
2024/05/16,00:50,6.8,4.6,�L
2024/05/16,01:00,6.7,4.7,�L
2024/05/16,01:10,6.6,4.6,�L
2024/05/16,01:20,6.7,4.6,�L
2024/05/16,01:30,6.7,4.6,�L
2024/05/16,01:40,6.7,4.5,��
2024/05/16,01:50,6.7,4.6,�L
2024/05/16,02:00,6.7,4.7,�L
2024/05/16,02:10,6.7,4.7,�L
2024/05/16,02:20,6.8,4.6,��
2024/05/16,02:30,6.7,4.5,��
2024/05/16,02:40,6.6,4.6,��
2024/05/16,02:50,6.7,4.6,��
2024/05/16,03:00,6.8,4.5,�L
2024/05/16,03:10,6.7,4.4,�L
2024/05/16,03:20,6.7,4.6,�L
2024/05/16,03:30,6.7,4.7,�L
2024/05/16,03:40,6.6,4.6,�L
2024/05/16,03:50,6.6,4.6,��
2024/05/16,04:00,6.8,4.5,��
2024/05/16,04:10,6.8,4.8,��
2024/05/16,04:20,6.7,4.6,��
2024/05/16,04:30,6.8,4.7,��
2024/05/16,04:40,6.7,4.7,��
2024/05/16,04:50,6.8,4.6,��
2024/05/16,05:00,6.7,4.5,��
2024/05/16,05:10,6.7,4.7,��
2024/05/16,05:20,6.8,4.6,��
2024/05/16,05:30,6.8,4.6,�L
2024/05/16,05:40,6.7,4.7,��
2024/05/16,05:50,6.7,4.7,��
2024/05/16,06:00,6.6,4.6,�L
2024/05/16,06:10,6.6,4.5,�L
2024/05/16,06:20,6.5,4.5,�L
2024/05/16,06:30,6.8,4.6,�L
2024/05/16,06:40,6.8,4.6,�L
2024/05/16,06:50,6.8,4.6,�L
2024/05/16,07:00,6.6,4.6,�L
2024/05/16,07:10,6.7,4.6,�L
2024/05/16,07:20,6.7,4.5,�L
2024/05/16,07:30,6.7,4.6,�L
2024/05/16,07:40,6.8,4.6,�L
2024/05/16,07:50,6.7,4.6,�L
2024/05/16,08:00,6.7,4.7,�L
2024/05/16,08:10,6.7,4.6,�L
2024/05/16,08:20,6.6,4.6,�L
2024/05/16,08:30,6.7,4.6,�L
2024/05/16,08:40,6.6,4.6,�L
2024/05/16,08:50,6.7,4.6,�L
2024/05/16,09:00,6.6,4.6,�L
2024/05/16,09:10,6.8,4.6,�L
2024/05/16,09:20,6.9,4.5,�L
2024/05/16,09:30,6.8,4.6,�L
2024/05/16,09:40,6.7,4.7,�L
2024/05/16,09:50,6.7,4.6,�L
2024/05/16,10:00,6.7,4.6,�L
2024/05/16,10:10,6.8,4.7,�L
2024/05/16,10:20,6.8,4.7,�L
2024/05/16,10:30,6.8,4.6,�L
2024/05/16,10:40,6.8,4.7,�L
2024/05/16,10:50,6.6,4.7,�L
2024/05/16,11:00,6.7,4.6,�L
2024/05/16,11:10,6.5,4.5,�L
2024/05/16,11:20,6.5,4.6,�L
2024/05/16,11:30,6.6,4.6,�L
2024/05/16,11:40,6.8,4.5,�L
2024/05/16,11:50,6.7,4.6,�L
2024/05/16,12:00,6.6,4.7,�L
2024/05/16,12:10,6.8,4.6,�L
2024/05/16,12:20,6.7,4.6,�L
2024/05/16,12:30,6.5,4.5,�L
2024/05/16,12:40,6.7,4.7,��
2024/05/16,12:50,6.7,4.8,�L
2024/05/16,13:00,6.7,4.6,��
2024/05/16,13:10,6.8,4.5,�L
2024/05/16,13:20,6.6,4.6,�L
2024/05/16,13:30,6.7,4.5,��
2024/05/16,13:40,6.8,4.6,��
2024/05/16,13:50,7.0,4.4,��
2024/05/16,14:00,6.9,4.4,��
2024/05/16,14:10,7.0,4.4,��
2024/05/16,14:20,7.1,4.4,��
2024/05/16,14:30,6.9,4.4,��
2024/05/16,14:40,6.7,4.4,��
2024/05/16,14:50,6.9,4.6,��
2024/05/16,15:00,7.0,4.3,��
2024/05/16,15:10,7.0,4.4,��
2024/05/16,15:20,6.9,4.3,��
2024/05/16,15:30,7.0,4.4,��
2024/05/16,15:40,6.9,4.4,��
2024/05/16,15:50,6.8,4.4,�L
2024/05/16,16:00,6.9,4.1,��
2024/05/16,16:10,6.9,4.2,��
2024/05/16,16:20,6.9,4.3,��
2024/05/16,16:30,6.7,4.4,��
2024/05/16,16:40,6.7,4.4,��
2024/05/16,16:50,6.8,4.3,��
2024/05/16,17:00,6.9,4.3,��
2024/05/16,17:10,6.7,4.3,��
2024/05/16,17:20,6.8,4.4,��
2024/05/16,17:30,6.6,4.4,��
2024/05/16,17:40,6.8,4.3,��
2024/05/16,17:50,6.8,4.3,��
2024/05/16,18:00,6.8,4.4,��
2024/05/16,18:10,6.9,4.3,��
2024/05/16,18:20,6.8,4.3,��
2024/05/16,18:30,6.7,4.2,��
2024/05/16,18:40,6.7,4.3,��
2024/05/16,18:50,6.6,4.4,��
2024/05/16,19:00,6.8,4.2,��
2024/05/16,19:10,6.7,4.4,��
2024/05/16,19:20,6.7,4.3,��
2024/05/16,19:30,6.9,4.4,��
2024/05/16,19:40,6.8,4.3,��
2024/05/16,19:50,6.7,4.3,��
2024/05/16,20:00,6.7,4.3,��
2024/05/16,20:10,6.7,4.3,��
2024/05/16,20:20,6.8,4.4,��
2024/05/16,20:30,6.7,4.4,��
2024/05/16,20:40,6.7,4.3,��
2024/05/16,20:50,6.7,4.3,��
2024/05/16,21:00,6.7,4.3,��
2024/05/16,21:10,6.6,4.3,��
2024/05/16,21:20,6.6,4.4,��
2024/05/16,21:30,6.7,4.5,��
2024/05/16,21:40,6.7,4.3,��
2024/05/16,21:50,6.7,4.2,��
2024/05/16,22:00,6.8,4.2,��
2024/05/16,22:10,6.6,4.2,��
2024/05/16,22:20,6.8,4.4,��
2024/05/16,22:30,6.6,4.3,��
2024/05/16,22:40,6.5,4.3,��
2024/05/16,22:50,6.6,4.4,��
2024/05/16,23:00,6.8,4.2,��
2024/05/16,23:10,6.7,4.3,��
2024/05/16,23:20,6.5,4.4,��
2024/05/16,23:30,6.6,4.2,��
2024/05/16,23:40,6.7,4.3,��
2024/05/16,23:50,6.8,4.3,��
